TimeAEST,TemperatureF,Dew PointF,Humidity,Sea Level PressureIn,VisibilityMPH,Wind Direction,Wind SpeedMPH,Gust SpeedMPH,PrecipitationIn,Events,Conditions,WindDirDegrees,DateUTC
12:00 AM,52,48,82,29.97,19,NNW,5.8,,,,Partly Cloudy,340,2013-05-16 14:00:00
12:00 AM,51.8,48.2,88,29.95,-9999.0,NNW,5.8,-,N/A,,Clear,340,2013-05-16 14:00:00
12:30 AM,51.8,48.2,88,29.95,-9999.0,NNW,4.6,-,N/A,,Clear,330,2013-05-16 14:30:00
1:00 AM,52,47,79,29.96,,Calm,Calm,,,,,,2013-05-16 15:00:00
1:00 AM,51.8,48.2,88,29.95,-9999.0,Calm,Calm,-,N/A,,Clear,0,2013-05-16 15:00:00
1:30 AM,53.6,48.2,82,29.95,-9999.0,WSW,5.8,-,N/A,,Clear,240,2013-05-16 15:30:00
2:00 AM,53.6,48.2,82,29.95,-9999.0,SW,8.1,-,N/A,,Clear,230,2013-05-16 16:00:00
2:30 AM,53.6,48.2,82,29.95,-9999.0,SW,5.8,-,N/A,,Clear,220,2013-05-16 16:30:00
3:00 AM,53,48,76,29.95,19,SSW,4.6,,,,Partly Cloudy,210,2013-05-16 17:00:00
3:00 AM,53.6,48.2,82,29.95,-9999.0,SSW,4.6,-,N/A,,Clear,210,2013-05-16 17:00:00
3:30 AM,53.6,48.2,82,29.95,-9999.0,NE,3.5,-,N/A,,Clear,50,2013-05-16 17:30:00
4:00 AM,54,47,71,29.95,,SSE,2.3,,,,,160,2013-05-16 18:00:00
4:00 AM,55.4,48.2,77,29.95,-9999.0,SSE,2.3,-,N/A,,Clear,160,2013-05-16 18:00:00
4:30 AM,53.6,48.2,82,29.95,-9999.0,Calm,Calm,-,N/A,,Clear,0,2013-05-16 18:30:00
5:00 AM,51.8,48.2,88,29.95,-9999.0,WSW,10.4,-,N/A,,Clear,250,2013-05-16 19:00:00
5:30 AM,53.6,46.4,77,29.95,-9999.0,West,10.4,-,N/A,,Clear,260,2013-05-16 19:30:00
6:00 AM,53,46,71,29.98,19,West,8.1,,,,Partly Cloudy,260,2013-05-16 20:00:00
6:00 AM,53.6,46.4,77,29.98,-9999.0,West,8.1,-,N/A,,Clear,260,2013-05-16 20:00:00
6:30 AM,53.6,44.6,72,29.98,-9999.0,WNW,5.8,-,N/A,,Clear,290,2013-05-16 20:30:00
7:00 AM,53,47,75,30.00,,WNW,4.6,,,,,300,2013-05-16 21:00:00
7:00 AM,51.8,48.2,88,29.98,-9999.0,WNW,4.6,-,N/A,,Clear,300,2013-05-16 21:00:00
7:30 AM,57.2,48.2,72,30.01,-9999.0,NW,5.8,-,N/A,,Clear,310,2013-05-16 21:30:00
8:00 AM,59.0,50.0,72,30.01,-9999.0,NNW,5.8,-,N/A,,Clear,330,2013-05-16 22:00:00
8:30 AM,62.6,50.0,63,30.01,6.2,North,5.8,-,N/A,,Partly Cloudy,350,2013-05-16 22:30:00
9:00 AM,64,50,49,30.03,25,NNW,5.8,,,,Partly Cloudy,330,2013-05-16 23:00:00
9:00 AM,64.4,50.0,59,30.01,-9999.0,NNW,5.8,-,N/A,,Clear,330,2013-05-16 23:00:00
9:30 AM,66.2,46.4,49,30.01,-9999.0,NNW,4.6,-,N/A,,Clear,340,2013-05-16 23:30:00
10:00 AM,68,46,33,30.02,,NNW,6.9,,,,,330,2013-05-17 00:00:00
10:00 AM,68.0,46.4,46,30.01,6.2,NNW,6.9,-,N/A,,Partly Cloudy,330,2013-05-17 00:00:00
10:30 AM,69.8,44.6,40,30.01,6.2,West,9.2,-,N/A,,Partly Cloudy,260,2013-05-17 00:30:00
11:00 AM,71.6,44.6,38,29.98,6.2,WSW,9.2,-,N/A,,Partly Cloudy,250,2013-05-17 01:00:00
11:30 AM,71.6,44.6,38,29.98,6.2,West,13.8,-,N/A,,Partly Cloudy,260,2013-05-17 01:30:00
12:00 PM,73,42,22,29.96,25,WSW,16.1,,,,Partly Cloudy,250,2013-05-17 02:00:00
12:00 PM,73.4,42.8,33,29.95,6.2,WSW,16.1,-,N/A,,Partly Cloudy,250,2013-05-17 02:00:00
12:30 PM,71.6,42.8,35,29.95,6.2,WSW,19.6,-,N/A,,Partly Cloudy,240,2013-05-17 02:30:00
1:00 PM,72,42,23,29.94,,WSW,18.4,,,,,250,2013-05-17 03:00:00
1:00 PM,71.6,42.8,35,29.92,6.2,WSW,18.4,-,N/A,,Partly Cloudy,250,2013-05-17 03:00:00
1:19 PM,71.6,39.2,31,29.92,6.2,WSW,19.6,32.2,N/A,,Partly Cloudy,250,2013-05-17 03:19:00
1:30 PM,73.4,42.8,33,29.92,6.2,West,20.7,-,N/A,,Partly Cloudy,260,2013-05-17 03:30:00
2:00 PM,73.4,42.8,33,29.92,6.2,West,17.3,-,N/A,,Partly Cloudy,260,2013-05-17 04:00:00
2:30 PM,73.4,41.0,31,29.92,6.2,West,18.4,-,N/A,,Partly Cloudy,260,2013-05-17 04:30:00
3:00 PM,73,41,21,29.92,25,West,12.7,,,,Partly Cloudy,260,2013-05-17 05:00:00
3:00 PM,73.4,41.0,31,29.92,6.2,West,12.7,-,N/A,,Partly Cloudy,260,2013-05-17 05:00:00
3:30 PM,73.4,41.0,31,29.89,6.2,West,15.0,-,N/A,,Partly Cloudy,260,2013-05-17 05:30:00
4:00 PM,72,39,19,29.92,,WSW,16.1,,,,,250,2013-05-17 06:00:00
4:00 PM,71.6,39.2,31,29.92,6.2,WSW,16.1,-,N/A,,Partly Cloudy,250,2013-05-17 06:00:00
4:30 PM,69.8,39.2,33,29.92,6.2,WSW,12.7,-,N/A,,Partly Cloudy,250,2013-05-17 06:30:00
5:00 PM,68.0,42.8,40,29.92,6.2,WSW,8.1,-,N/A,,Partly Cloudy,250,2013-05-17 07:00:00
5:30 PM,66.2,42.8,43,29.95,6.2,West,8.1,-,N/A,,Partly Cloudy,260,2013-05-17 07:30:00
6:00 PM,65,43,33,29.96,25,West,8.1,,,,Partly Cloudy,270,2013-05-17 08:00:00
6:00 PM,64.4,42.8,45,29.95,6.2,West,8.1,-,N/A,,Partly Cloudy,270,2013-05-17 08:00:00
6:30 PM,64.4,42.8,45,29.95,-9999.0,WNW,5.8,-,N/A,,Clear,300,2013-05-17 08:30:00
7:00 PM,62,44,40,29.98,,WNW,6.9,,,,,300,2013-05-17 09:00:00
7:00 PM,62.6,44.6,52,29.98,-9999.0,WNW,6.9,-,N/A,,Clear,300,2013-05-17 09:00:00
7:30 PM,62.6,42.8,48,29.98,-9999.0,WNW,6.9,-,N/A,,Clear,290,2013-05-17 09:30:00
8:00 PM,62.6,42.8,48,29.98,-9999.0,West,6.9,-,N/A,,Clear,280,2013-05-17 10:00:00
8:30 PM,62.6,42.8,48,29.98,-9999.0,West,8.1,-,N/A,,Clear,260,2013-05-17 10:30:00
9:00 PM,61,42,39,30.00,25,West,10.4,,,,Partly Cloudy,260,2013-05-17 11:00:00
9:00 PM,60.8,42.8,52,29.98,-9999.0,West,10.4,-,N/A,,Clear,260,2013-05-17 11:00:00
9:30 PM,60.8,41.0,48,29.98,-9999.0,West,10.4,-,N/A,,Clear,270,2013-05-17 11:30:00
10:00 PM,59,42,43,30.00,,West,10.4,,,,,270,2013-05-17 12:00:00
10:00 PM,59.0,42.8,55,29.98,-9999.0,West,10.4,-,N/A,,Clear,270,2013-05-17 12:00:00
10:30 PM,59.0,42.8,55,29.98,-9999.0,West,6.9,-,N/A,,Clear,270,2013-05-17 12:30:00
11:00 PM,57.2,42.8,59,29.98,-9999.0,WNW,6.9,-,N/A,,Clear,290,2013-05-17 13:00:00
11:30 PM,55.4,44.6,67,29.98,-9999.0,West,8.1,-,N/A,,Clear,270,2013-05-17 13:30:00